KC5EZZ-2 Weather Reports


Display with metric or nautical units.
time (UTC)temp
F
wind
direction
speed
MPH
gust
MPH
rain 1hr
in
rain 24hr
in
rain mn
in
humidity
%
barometer
mb
20260510220824 73 314 28.0 24.0 0.00 0.00 0.00
20260510220325 73 266 17.0 16.0 0.00 0.00 0.00
20260510215822 88 309 13.0 17.0 0.00 0.00 0.00
20260510215322 90 135 10.0 10.0 0.00 0.00 0.00
20260510214823 90 169 10.0 13.0 0.00 0.00 0.00
20260510214318 91 134 17.0 15.0 0.00 0.00 0.00
20260510213818 91 101 15.0 15.0 0.00 0.00 0.00
20260510213319 92 122 13.0 11.0 0.00 0.00 0.00
20260510212817 92 153 10.0 9.0 0.00 0.00 0.00
20260510212316 94 132 15.0 15.0 0.00 0.00 0.00
20260510211817 95 128 14.0 20.0 0.00 0.00 0.00
20260510211314 95 117 13.0 12.0 0.00 0.00 0.00
20260510210815 95 127 16.0 20.0 0.00 0.00 0.00
20260510210315 96 108 13.0 13.0 0.00 0.00 0.00
20260510205812 96 118 13.0 16.0 0.00 0.00 0.00
20260510205313 96 132 17.0 13.0 0.00 0.00 0.00
20260510204813 95 122 11.0 11.0 0.00 0.00 0.00
20260510204310 95 148 14.0 15.0 0.00 0.00 0.00
20260510203810 95 121 16.0 14.0 0.00 0.00 0.00
20260510203311 95 118 11.0 8.0 0.00 0.00 0.00
20260510202808 96 153 15.0 11.0 0.00 0.00 0.00
20260510202308 95 141 13.0 13.0 0.00 0.00 0.00
20260510201809 95 142 13.0 16.0 0.00 0.00 0.00
20260510201306 95 101 14.0 14.0 0.00 0.00 0.00
20260510200806 95 163 13.0 14.0 0.00 0.00 0.00
20260510200307 95 169 10.0 13.0 0.00 0.00 0.00
20260510195804 95 155 17.0 16.0 0.00 0.00 0.00
20260510195306 94 145 11.0 8.0 0.00 0.00 0.00
20260510194804 95 100 11.0 9.0 0.00 0.00 0.00
20260510194302 95 127 8.0 9.0 0.00 0.00 0.00
20260510193802 94 103 7.0 11.0 0.00 0.00 0.00
20260510193302 94 184 7.0 7.0 0.00 0.00 0.00
20260510192800 92 141 13.0 17.0 0.00 0.00 0.00
20260510192300 93 63 12.0 10.0 0.00 0.00 0.00
20260510191759 94 131 12.0 13.0 0.00 0.00 0.00
20260510191559 94 143 12.0 11.0 0.00 0.00 0.00
20260510191257 94 143 12.0 11.0 0.00 0.00 0.00
20260510190757 94 107 12.0 15.0 0.00 0.00 0.00
20260510190257 94 167 13.0 6.0 0.00 0.00 0.00
20260510185755 93 132 14.0 14.0 0.00 0.00 0.00
20260510185255 92 113 13.0 13.0 0.00 0.00 0.00
20260510184755 93 134 9.0 9.0 0.00 0.00 0.00
20260510184252 92 138 10.0 12.0 0.00 0.00 0.00
20260510183753 92 146 11.0 12.0 0.00 0.00 0.00
20260510183253 93 125 12.0 11.0 0.00 0.00 0.00
20260510182750 93 124 8.0 15.0 0.00 0.00 0.00
20260510182251 93 163 9.0 8.0 0.00 0.00 0.00
20260510181751 92 166 12.0 16.0 0.00 0.00 0.00
20260510181248 93 83 9.0 12.0 0.00 0.00 0.00
20260510180749 93 125 11.0 11.0 0.00 0.00 0.00
20260510180249 92 177 11.0 10.0 0.00 0.00 0.00
20260510175746 90 127 8.0 8.0 0.00 0.00 0.00
20260510175247 92 136 11.0 13.0 0.00 0.00 0.00
20260510174747 91 172 11.0 17.0 0.00 0.00 0.00
20260510174244 92 145 7.0 13.0 0.00 0.00 0.00
20260510173745 92 132 8.0 4.0 0.00 0.00 0.00
20260510173245 89 156 9.0 11.0 0.00 0.00 0.00
20260510173122 89 141 12.0 12.0 0.00 0.00 0.00
20260510172742 89 141 12.0 12.0 0.00 0.00 0.00
20260510172243 88 110 11.0 10.0 0.00 0.00 0.00
20260510171743 89 159 11.0 10.0 0.00 0.00 0.00
20260510170741 87 113 10.0 8.0 0.00 0.00 0.00
20260510170241 87 108 8.0 7.0 0.00 0.00 0.00
20260510165739 85 100 8.0 9.0 0.00 0.00 0.00
20260510165239 85 79 11.0 13.0 0.00 0.00 0.00
20260510164739 85 97 10.0 9.0 0.00 0.00 0.00
20260510164237 85 89 12.0 14.0 0.00 0.00 0.00
20260510163737 85 98 13.0 10.0 0.00 0.00 0.00
20260510163237 87 121 11.0 13.0 0.00 0.00 0.00
20260510162735 85 115 10.0 12.0 0.00 0.00 0.00
20260510162235 84 114 11.0 9.0 0.00 0.00 0.00
20260510161735 85 97 11.0 10.0 0.00 0.00 0.00
20260510161233 83 110 10.0 6.0 0.00 0.00 0.00
20260510160733 84 114 10.0 8.0 0.00 0.00 0.00
20260510160233 84 104 12.0 10.0 0.00 0.00 0.00
20260510155731 83 113 8.0 9.0 0.00 0.00 0.00
20260510155231 82 75 8.0 10.0 0.00 0.00 0.00
20260510154731 83 70 9.0 7.0 0.00 0.00 0.00
20260510154228 84 125 8.0 7.0 0.00 0.00 0.00
20260510153728 83 122 8.0 8.0 0.00 0.00 0.00
20260510153228 81 128 7.0 9.0 0.00 0.00 0.00
20260510152726 81 42 7.0 10.0 0.00 0.00 0.00
20260510151727 81 118 8.0 6.0 0.00 0.00 0.00
20260510151224 80 115 10.0 7.0 0.00 0.00 0.00
20260510150226 79 94 10.0 10.0 0.00 0.00 0.00
20260510145722 81 108 11.0 10.0 0.00 0.00 0.00
20260510145223 81 111 8.0 8.0 0.00 0.00 0.00
20260510144723 81 138 7.0 12.0 0.00 0.00 0.00
20260510144220 80 149 11.0 14.0 0.00 0.00 0.00
20260510143721 79 165 11.0 8.0 0.00 0.00 0.00
20260510143221 79 166 11.0 17.0 0.00 0.00 0.00
20260510142719 79 134 11.0 15.0 0.00 0.00 0.00
20260510142219 80 163 16.0 16.0 0.00 0.00 0.00
20260510141719 79 165 14.0 12.0 0.00 0.00 0.00
20260510141217 79 162 14.0 21.0 0.00 0.00 0.00
20260510140717 79 183 14.0 14.0 0.00 0.00 0.00
20260510140217 79 172 17.0 19.0 0.00 0.00 0.00
20260510135715 78 201 6.0 13.0 0.00 0.00 0.00
20260510135215 78 187 12.0 17.0 0.00 0.00 0.00
20260510134716 77 113 14.0 15.0 0.00 0.00 0.00
20260510134213 78 173 12.0 16.0 0.00 0.00 0.00
20260510133713 77 180 10.0 10.0 0.00 0.00 0.00
20260510133247 76 187 14.0 13.0 0.00 0.00 0.00
20260510133214 76 187 14.0 13.0 0.00 0.00 0.00
20260510132711 77 184 13.0 16.0 0.00 0.00 0.00
20260510132212 77 184 14.0 17.0 0.00 0.00 0.00
20260510131712 77 211 15.0 15.0 0.00 0.00 0.00
20260510131210 78 160 13.0 15.0 0.00 0.00 0.00
20260510130710 78 142 14.0 17.0 0.00 0.00 0.00
20260510130210 77 188 15.0 18.0 0.00 0.00 0.00
20260510125708 76 195 13.0 11.0 0.00 0.00 0.00
20260510125208 76 198 15.0 12.0 0.00 0.00 0.00
20260510124708 76 180 12.0 20.0 0.00 0.00 0.00
20260510124206 75 170 13.0 14.0 0.00 0.00 0.00
20260510123706 75 172 10.0 9.0 0.00 0.00 0.00
20260510123207 74 191 12.0 10.0 0.00 0.00 0.00
20260510122704 74 163 11.0 8.0 0.00 0.00 0.00
20260510122205 74 187 11.0 15.0 0.00 0.00 0.00
20260510121705 73 184 12.0 10.0 0.00 0.00 0.00
20260510121202 72 188 9.0 12.0 0.00 0.00 0.00
20260510120703 71 166 12.0 9.0 0.00 0.00 0.00
20260510115701 70 163 7.0 10.0 0.00 0.00 0.00
20260510115201 70 166 9.0 14.0 0.00 0.00 0.00
20260510114700 70 183 9.0 11.0 0.00 0.00 0.00
20260510114302 70 179 12.0 11.0 0.00 0.00 0.00
20260510114158 70 179 12.0 11.0 0.00 0.00 0.00
20260510113658 70 166 10.0 14.0 0.00 0.00 0.00
20260510113159 70 155 9.0 8.0 0.00 0.00 0.00
20260510112655 70 191 10.0 10.0 0.00 0.00 0.00
20260510112155 70 159 8.0 7.0 0.00 0.00 0.00
20260510111656 70 186 9.0 10.0 0.00 0.00 0.00
20260510111153 70 146 12.0 9.0 0.00 0.00 0.00
20260510110654 70 163 8.0 8.0 0.00 0.00 0.00
20260510110154 70 158 8.0 8.0 0.00 0.00 0.00
20260510105731 70 186 8.0 10.0 0.00 0.00 0.00
20260510105651 70 186 8.0 10.0 0.00 0.00 0.00
20260510105233 70 146 7.0 6.0 0.00 0.00 0.00
20260510105152 70 146 7.0 6.0 0.00 0.00 0.00
20260510104652 70 163 7.0 6.0 0.00 0.00 0.00
20260510104150 70 176 7.0 6.0 0.00 0.00 0.00
20260510103650 70 166 7.0 9.0 0.00 0.00 0.00
20260510103150 70 165 9.0 8.0 0.00 0.00 0.00
20260510102648 70 155 9.0 9.0 0.00 0.00 0.00
20260510102148 70 181 8.0 7.0 0.00 0.00 0.00
20260510101649 69 176 8.0 9.0 0.00 0.00 0.00
20260510101146 69 139 6.0 6.0 0.00 0.00 0.00
20260510100647 68 197 6.0 7.0 0.00 0.00 0.00
20260510100146 67 169 5.0 4.0 0.00 0.00 0.00
20260510095644 67 177 4.0 4.0 0.00 0.00 0.00
20260510095144 67 177 0.0 0.0 0.00 0.00 0.00
20260510094645 67 177 0.0 0.0 0.00 0.00 0.00
20260510094142 67 177 0.0 0.0 0.00 0.00 0.00
20260510093643 67 177 0.0 0.0 0.00 0.00 0.00
20260510093143 67 177 0.0 0.0 0.00 0.00 0.00
20260510092641 67 177 0.0 0.0 0.00 0.00 0.00
20260510092140 67 177 0.0 0.0 0.00 0.00 0.00
20260510091640 67 177 0.0 0.0 0.00 0.00 0.00
20260510091138 67 104 0.0 0.0 0.00 0.00 0.00
20260510090638 67 104 0.0 0.0 0.00 0.00 0.00
20260510090139 67 104 0.0 0.0 0.00 0.00 0.00
20260510085636 67 104 0.0 0.0 0.00 0.00 0.00
20260510085136 68 104 2.0 0.0 0.00 0.00 0.00
20260510084637 67 121 2.0 2.0 0.00 0.00 0.00
20260510084134 68 139 3.0 2.0 0.00 0.00 0.00
20260510083635 68 180 3.0 2.0 0.00 0.00 0.00
20260510083135 68 194 5.0 4.0 0.00 0.00 0.00
20260510082633 68 156 5.0 5.0 0.00 0.00 0.00
20260510082133 68 160 4.0 5.0 0.00 0.00 0.00
20260510081634 68 162 6.0 5.0 0.00 0.00 0.00
20260510081131 68 172 4.0 4.0 0.00 0.00 0.00
20260510080632 67 172 5.0 0.0 0.00 0.00 0.00
20260510080132 67 163 0.0 0.0 0.00 0.00 0.00
20260510075630 68 163 0.0 0.0 0.00 0.00 0.00
20260510075130 68 163 0.0 0.0 0.00 0.00 0.00
20260510074631 68 159 3.0 0.0 0.00 0.00 0.00
20260510074128 69 176 3.0 2.0 0.00 0.00 0.00
20260510073628 69 176 4.0 3.0 0.00 0.00 0.00
20260510073129 68 190 0.0 0.0 0.00 0.00 0.00
20260510072626 68 190 0.0 0.0 0.00 0.00 0.00
20260510072127 68 190 0.0 0.0 0.00 0.00 0.00
20260510071627 68 190 0.0 0.0 0.00 0.00 0.00
20260510071125 68 184 3.0 3.0 0.00 0.00 0.00
20260510070625 69 165 2.0 2.0 0.00 0.00 0.00
20260510070411 69 186 3.0 2.0 0.00 0.00 0.00
20260510070126 69 186 3.0 2.0 0.00 0.00 0.00
20260510065623 69 163 2.0 2.0 0.00 0.00 0.00
20260510065124 69 170 3.0 4.0 0.00 0.00 0.00
20260510064624 69 166 3.0 4.0 0.00 0.00 0.00
20260510064121 69 179 2.0 3.0 0.00 0.00 0.00
20260510063622 69 158 2.0 2.0 0.00 0.00 0.00
20260510063122 70 173 1.0 2.0 0.00 0.00 0.00
20260510062620 70 158 2.0 2.0 0.00 0.00 0.00
20260510062120 70 150 2.0 2.0 0.00 0.00 0.00
20260510061621 70 173 3.0 3.0 0.00 0.00 0.00
20260510061118 71 158 3.0 3.0 0.00 0.00 0.00
20260510060619 71 149 2.0 2.0 0.00 0.00 0.00
20260510060119 71 150 2.0 2.0 0.00 0.00 0.00
20260510055617 71 160 3.0 2.0 0.00 0.00 0.00
20260510055117 71 167 4.0 4.0 0.00 0.00 0.00
20260510054617 72 187 5.0 4.0 0.00 0.00 0.00
20260510054114 72 225 6.0 7.0 0.00 0.00 0.00
20260510053614 72 180 5.0 7.0 0.00 0.00 0.00
20260510053115 72 197 5.0 4.0 0.00 0.00 0.00
20260510052611 72 187 4.0 4.0 0.00 0.00 0.00
20260510052112 72 193 3.0 4.0 0.00 0.00 0.00
20260510051612 71 177 3.0 3.0 0.00 0.00 0.00
20260510051110 72 169 2.0 2.0 0.00 0.00 0.00
20260510050610 72 193 3.0 3.0 0.00 0.00 0.00
20260510045608 73 198 5.0 3.0 0.00 0.00 0.00
20260510045108 73 177 5.0 4.0 0.00 0.00 0.00
20260510044609 73 166 5.0 4.0 0.00 0.00 0.00
20260510044106 73 181 5.0 6.0 0.00 0.00 0.00
20260510043607 73 169 5.0 5.0 0.00 0.00 0.00
20260510043107 73 186 4.0 5.0 0.00 0.00 0.00
20260510042604 73 180 4.0 4.0 0.00 0.00 0.00
20260510042105 73 174 3.0 5.0 0.00 0.00 0.00
20260510041605 74 176 3.0 3.0 0.00 0.00 0.00
20260510041103 74 177 4.0 5.0 0.00 0.00 0.00
20260510040709 75 172 4.0 4.0 0.00 0.00 0.00
20260510040603 75 172 4.0 4.0 0.00 0.00 0.00
20260510040103 75 176 4.0 3.0 0.00 0.00 0.00
20260510035601 75 176 3.0 4.0 0.00 0.00 0.00
20260510035101 76 170 3.0 3.0 0.00 0.00 0.00
20260510034602 76 173 3.0 2.0 0.00 0.00 0.00
20260510034059 76 158 3.0 2.0 0.00 0.00 0.00
20260510033559 76 165 4.0 3.0 0.00 0.00 0.00
20260510033100 76 190 4.0 4.0 0.00 0.00 0.00
20260510032557 77 174 4.0 4.0 0.00 0.00 0.00
20260510032058 77 195 4.0 3.0 0.00 0.00 0.00
20260510031558 78 183 4.0 4.0 0.00 0.00 0.00
20260510031056 78 174 4.0 3.0 0.00 0.00 0.00
20260510030556 79 160 2.0 4.0 0.00 0.00 0.00
20260510030056 79 146 3.0 3.0 0.00 0.00 0.00
20260510025554 79 165 4.0 3.0 0.00 0.00 0.00
20260510025054 80 181 5.0 5.0 0.00 0.00 0.00
20260510024555 80 166 4.0 3.0 0.00 0.00 0.00
20260510024052 81 150 4.0 4.0 0.00 0.00 0.00
20260510023553 81 138 5.0 4.0 0.00 0.00 0.00
20260510023053 81 135 5.0 5.0 0.00 0.00 0.00
20260510022550 82 149 5.0 4.0 0.00 0.00 0.00
20260510022051 82 129 6.0 7.0 0.00 0.00 0.00
20260510021549 82 146 6.0 5.0 0.00 0.00 0.00
20260510021047 83 145 6.0 5.0 0.00 0.00 0.00
20260510020547 83 162 7.0 5.0 0.00 0.00 0.00
20260510020047 83 152 5.0 5.0 0.00 0.00 0.00
20260510015545 84 131 6.0 6.0 0.00 0.00 0.00
20260510015045 84 129 7.0 5.0 0.00 0.00 0.00
20260510014545 84 135 6.0 5.0 0.00 0.00 0.00
20260510014043 84 121 4.0 7.0 0.00 0.00 0.00
20260510013543 85 117 5.0 6.0 0.00 0.00 0.00
20260510013043 85 131 6.0 4.0 0.00 0.00 0.00
20260510012541 85 120 4.0 4.0 0.00 0.00 0.00
20260510012041 86 117 3.0 4.0 0.00 0.00 0.00
20260510011541 86 118 5.0 8.0 0.00 0.00 0.00
20260510011039 86 113 6.0 7.0 0.00 0.00 0.00
20260510010539 87 115 5.0 5.0 0.00 0.00 0.00
20260510010039 87 115 6.0 6.0 0.00 0.00 0.00
20260510005537 87 103 4.0 5.0 0.00 0.00 0.00
20260510005037 87 101 7.0 6.0 0.00 0.00 0.00
20260510004646 88 142 8.0 8.0 0.00 0.00 0.00
20260510004537 88 142 8.0 8.0 0.00 0.00 0.00
20260510004035 89 158 7.0 7.0 0.00 0.00 0.00
20260510003535 88 138 6.0 5.0 0.00 0.00 0.00
20260510003036 89 128 8.0 7.0 0.00 0.00 0.00
20260510002533 89 152 8.0 6.0 0.00 0.00 0.00
20260510002033 89 121 8.0 9.0 0.00 0.00 0.00
20260510001534 89 111 8.0 8.0 0.00 0.00 0.00
20260510001031 90 139 8.0 9.0 0.00 0.00 0.00
20260510000532 90 118 7.0 6.0 0.00 0.00 0.00
20260510000032 90 139 8.0 7.0 0.00 0.00 0.00
20260509235529 90 145 8.0 6.0 0.00 0.00 0.00
20260509234530 90 125 11.0 7.0 0.00 0.00 0.00
20260509234027 90 129 7.0 7.0 0.00 0.00 0.00
20260509233527 89 91 10.0 10.0 0.00 0.00 0.00
20260509233027 91 122 8.0 6.0 0.00 0.00 0.00
20260509232524 90 97 9.0 12.0 0.00 0.00 0.00
20260509232025 92 93 8.0 11.0 0.00 0.00 0.00
20260509231525 91 167 5.0 8.0 0.00 0.00 0.00
20260509230522 92 173 6.0 6.0 0.00 0.00 0.00
20260509230022 92 166 5.0 5.0 0.00 0.00 0.00
20260509225520 91 184 6.0 5.0 0.00 0.00 0.00
20260509225020 91 145 8.0 6.0 0.00 0.00 0.00
20260509224520 91 98 6.0 7.0 0.00 0.00 0.00
20260509224018 91 80 7.0 6.0 0.00 0.00 0.00
20260509223518 91 98 9.0 7.0 0.00 0.00 0.00
20260509223018 91 117 8.0 11.0 0.00 0.00 0.00
20260509222516 94 150 10.0 8.0 0.00 0.00 0.00
20260509222016 92 187 7.0 7.0 0.00 0.00 0.00
20260509221516 92 145 9.0 8.0 0.00 0.00 0.00